Погода Мыс Лопатка

Погода Мыс Лопатка : погода сейчас, прогноз погоды и архив. Всё, что Вы хотите узнать о погоде Мыс Лопатка!

Поиск расширенной информации на нашем сайте:

Другие новости

Новости СМИ2

Главная страница сайта

Новости сайта

03.07.2017

Напоминаем, что на нашем специализированном сайте Метеоцентр.Азия вы можете получить высокодетализированные автоматические прогнозы погоды по пунктам России, СНГ и мира в авиационном формате (включающие направление и скорость ветра, видимость, явления погоды, количество и форму облачности, нижнюю и верхнюю границу облачности).


Погода Мыс Лопатка - сегодня

Время (UTC), дата Ветер
(°,м/с) 
Видим.   Явления Облачность Т
(°С)
Тd
(°С)
f(%) Тe
(°С)
Pmin
(гПа)
dP
(гПа)
Po
(мм)
O2
(г/м3)
Тmin Tmax R s Состояние
почвы
00 20.09.17 150 (ЮВ) 13-16{17}  4000 м  слаб. ливневой дождь  10/10 300 м кучево-дожд. 
[Cb cap]
+9.6 +9.3 98 +7  1008.1  -0.3  752  291           
03 20.09.17 140 (ЮВ) 11-14{16}  4000 м  слаб. ливневой дождь  10/10 300 м кучево-дожд. 
[Cb cap]
+9.6 +9.4 99 +7  1007.4  -0.7  751  291           
06 20.09.17 130 (ЮВ) 10-12{14}  4000 м  слаб. морось{ливн. осадки}  10/10 300 м 
[St]
+9.4 +9.1 98 +7  1007.3  751  291           
09 20.09.17 000 (С) 93-12{12}  4000 м  слаб. дождь{ливн. осадки}  10/10 300 м кучево-дожд. 
[Cb cap|Ns]
+9.1   1007.3  0.2  751      +9.9     
12 20.09.17 130 (ЮВ) 8-10{13}  2000 м  слаб. дождь  10/10 300 м 
[Frnb|Ns]
+9.3 +9 98 +7  1007.6  0.3  751  291           
15 20.09.17 130 (ЮВ) 8-10{10}  4000 м  дождь  10/10 300 м 
[Frnb|Ns]
+9.4 +9.2 99 +7  1006.7  -0.9  750  291           
21 20.09.17 120 (ЮВ) 4000 м  слаб. дождь  10/10 300 м 
[Frnb|Ns]
+9.5 +9.3 99 +8  1007.4  0.5  751  291  +9.2       
00 21.09.17 130 (ЮВ) 5{10}  4000 м  слаб. дождь  10/10 300 м 
[Frnb|Ns]
+9.5 +9.2 98 +8  1006.9  0.1  751  291           
03 21.09.17 130 (ЮВ) 4000 м  дымка  10/10 300 м 
[St]
+10.2 +10 99 +10  1008.7  0.5  752  290           
06 21.09.17 130 (ЮВ) 2000 м  дымка  10/10 300 м 
[St]
+9.9 +9.7 99 +9  1009.4  0.7  752  291           
09 21.09.17 140 (ЮВ) 2000 м  дымка  10/10 300 м 
[St]
+9.8 +9.6 99 +10  1011.1  1.7  754  291    +10.2  0.3     
12 21.09.17 100 (В) 0500 м  туман  ?/?  
+9.9 +9.7 99 +9  1011.5  0.4  754  291           
15 21.09.17 110 (В) 7{10}  0500 м  туман  ?/?  
+9.8 +9.6 99 +9  1012.2  0.7  755  292           
18 21.09.17 100 (В) 10-13{14}  0500 м  туман  ?/?  
+9.8 +9.6 99 +8  1011.6  754  292           
21 21.09.17 130 (ЮВ) 5{13}  0500 м  туман  ?/?  
+9.5 +9.3 99 +8  1014.3  -0.6  756  293  +9.3      влажная 
00 22.09.17 090 (В) 8-10{10}  0500 м  ливневой дождь{туман}  ?/?  
+10.1 +9.9 99 +9  1014.9  0.6  757  292           
03 22.09.17 110 (В) 4{10}  0500 м  слаб. ливневой дождь{туман}  ?/?  
+10.1 +9.9 99 +10  1015.5  0.6  757  292           
06 22.09.17 200 (Ю) 0500 м  ливневой дождь{туман}  ?/?  
+9.8 +9.6 99 +11  1016.7  1.1  758  293           
09 22.09.17 310 (СЗ) 0500 м  туман{ливн. осадки}  ?/?  
+9.2 +9.3 100 +9  1018.4  1.6  759  294    +10.3  17     
12 22.09.17 310 (СЗ) 0500 м  туман{ливн. осадки}  ?/?  
+8 +7.8 99 +6  1019.4  760  296           
15 22.09.17 320 (СЗ) 0500 м  туман  ?/?  
+7 +6.8 99 +6  1020.4  0.9  761  298           
18 22.09.17 320 (СЗ) 0500 м  туман  ?/?  
+6.8 +6.7 99 +6  1020.8  0.4  761  298           
21 22.09.17 230 (ЮЗ) 0500 м  туман  ?/?  
+7.6 +7.4 99 +8  1021.9  1.1  762  297  +6.6    0.3     
00 23.09.17 300 (СЗ) 4000 м  дымка{туман}  10/10 300 м 
[St]
+9.7 +9.5 99 +9  1022.6  0.7  762  295           
03 23.09.17 340 (С) 4000 м  дымка  10/10 300 м 
[St]
+9.7 +9.4 98 +8  1022.2  -0.3  762  295           
Время (UTC), дата Ветер
(°,м/с) 
Видим.   Явления Облачность Т
(°С)
Тd
(°С)
f(%) Тe
(°С)
Pmin
(гПа)
dP
(гПа)
Po
(мм)
O2
(г/м3)
Тmin Tmax R s Состояние
почвы

Для получения пояснительной информации подведите курсор к названию столбца.

ПОГОДА Мыс Лопатка - архив

Всё, что Вы хотите узнать о погоде Мыс Лопатка - удобно и подробно!

Выберите нужную дату (начиная с 1 января 2015* года) и нажмите кнопку "Найти".
Будут отображены архивные сводки погоды по пункту Мыс Лопатка, начиная с указанной даты.


Отображать данные в формате CSV (для использования в таблицах Excel)


Внимание! Наш архив погоды предназначен исключительно для личного некоммерческого использования в познавательных целях. Если Вам необходимы официальные справки о состоянии погоды (для производственных, юридических, коммерческих и т.п. целей), обращайтесь в органы Росгидромета.

*Примечание: данная дата относится к архиву по метеостанциям СССР (Россия, СНГ, Балтия).
Архив по метеостанциям Зарубежной Европы и Азии (кроме Китая) хранится 10 дней, по другим регионам земного шара (Китай, Африка, Америка, Австралия, Океания) - 1 день.

Мыс Лопатка - район местоположения метеостанции


Название, широта, долгота, высота метеостанции:
Мыс Лопатка 50.9°ш. 156.7°д. 48 м над ур. моря [Российская Федерация]

Дополнительная информация

В oтличие oт бoльшинства пoгoдных сайтoв мы публикуем пoдрoбную метеoинфoрмацию в детальнoм прoфессиoнальнoм фoрмате.

Характеристики температуры и влажнoсти вoздуха измеряются на высoте 2 м в тени вдали oт зданий и деревьев.
Скoрoсть ветра измеряется на высoте 10 м (на урoвне рoста челoвека скoрoсть ветра ниже в 1.5-2 раза). Если метеoстанция нахoдится в гoрoде или в лесу, тo скoрoсть ветра занижена на 2-4 м/с пo сравнению с oткрытым местoм. Скoрoсть ветра над акватoриями крупных рек и oзёр, а также на вершинах хoлмoв на 2-5 м/с выше, чем в oбычных услoвиях.
Атмoсфернoе давление в разных тoчках местнoсти мoжет значительнo oтличаться oт давления на метеoстанции, в зависимoсти oт услoвий рельефа (при пoдъёме на 10 м давление пoнижается примернo на 1 мм рт.ст.).